QPF
0.00 0.00 0.00 0.00 0.00 0.00 0.00 0.00 0.00 0.00 0.00 0.00 0.00 0.01 0.01 0.03 0.04 0.11 0.10 0.05 0.07 0.06 0.06 0.05 0.04 0.03 0.02 0.03 0.03 0.03 0.02 0.01 0.02 0.03 0.03 0.03 0.04 0.04 0.03 0.05 0.05 0.05 0.04 0.04
0.00 0.00 0.00 0.00 0.00 0.00 0.00 0.00 0.00 0.00 0.00 0.01 0.01 0.02 0.04 0.03 0.02 0.08 0.09 0.05 0.05 0.10 0.07 0.05 0.03 0.02 0.02 0.03 0.04 0.04 0.04 0.03 0.03 0.03 0.03 0.03 0.04 0.05 0.05 0.05 0.06 0.05 0.05 0.04
0.00 0.00 0.00 0.00 0.00 0.00 0.00 0.00 0.00 0.00 0.00 0.00 0.00 0.01 0.02 0.01 0.02 0.04 0.04 0.05 0.05 0.06 0.05 0.05 0.03 0.02 0.02 0.02 0.05 0.07 0.07 0.06 0.05 0.04 0.03 0.02 0.03 0.04 0.05 0.04 0.04 0.04 0.04 0.04
0.00 0.00 0.00 0.00 0.00 0.00 0.00 0.00 0.00 0.00 0.00 0.00 0.00 0.01 0.02 0.03 0.03 0.03 0.05 0.07 0.06 0.10 0.09 0.06 0.05 0.03 0.03 0.04 0.05 0.07 0.07 0.07 0.06 0.03 0.02 0.01 0.03 0.05 0.05 0.04 0.04 0.04 0.03 0.03
0.00 0.00 0.00 0.00 0.00 0.00 0.01 0.02 0.01 0.01 0.00 0.00 0.00 0.01 0.03 0.05 0.07 0.06 0.07 0.09 0.09 0.07 0.04 0.03 0.03 0.03 0.04 0.03 0.04 0.06 0.07 0.07 0.05 0.02 0.02 0.01 0.03 0.06 0.06 0.07 0.07 0.05 0.03 0.02
0.00 0.00 0.00 0.00 0.01 0.00 0.01 0.05 0.06 0.02 0.01 0.01 0.01 0.02 0.03 0.04 0.05 0.05 0.06 0.09 0.09 0.08 0.04 0.03 0.02 0.03 0.07 0.08 0.09 0.08 0.06 0.07 0.05 0.03 0.02 0.02 0.02 0.03 0.03 0.05 0.07 0.07 0.04 0.02
0.00 0.00 0.01 0.00 0.00 0.00 0.02 0.05 0.07 0.03 0.02 0.02 0.02 0.01 0.02 0.03 0.03 0.04 0.05 0.06 0.06 0.05 0.05 0.04 0.04 0.04 0.05 0.07 0.07 0.06 0.05 0.04 0.03 0.02 0.02 0.02 0.02 0.01 0.01 0.01 0.01 0.02 0.03 0.02
0.00 0.00 0.01 0.00 0.00 0.01 0.03 0.09 0.10 0.06 0.05 0.03 0.02 0.02 0.02 0.03 0.06 0.07 0.07 0.05 0.05 0.04 0.05 0.06 0.07 0.08 0.07 0.06 0.05 0.04 0.03 0.03 0.02 0.02 0.02 0.02 0.01 0.01 0.01 0.01 0.01 0.01 0.02 0.02
0.01 0.02 0.01 0.01 0.01 0.02 0.04 0.07 0.13 0.12 0.07 0.05 0.04 0.03 0.02 0.03 0.06 0.07 0.06 0.05 0.04 0.04 0.04 0.04 0.05 0.06 0.07 0.06 0.06 0.04 0.05 0.05 0.03 0.02 0.02 0.01 0.01 0.01 0.01 0.01 0.01 0.02 0.02 0.02
0.03 0.03 0.02 0.02 0.03 0.03 0.04 0.04 0.05 0.11 0.11 0.06 0.04 0.03 0.02 0.02 0.04 0.06 0.05 0.04 0.04 0.04 0.04 0.04 0.04 0.05 0.05 0.05 0.04 0.03 0.03 0.02 0.02 0.01 0.01 0.01 0.01 0.01 0.01 0.01 0.01 0.01 0.01 0.01
0.06 0.06 0.05 0.06 0.06 0.05 0.04 0.03 0.04 0.06 0.09 0.07 0.04 0.02 0.02 0.03 0.04 0.04 0.06 0.05 0.04 0.04 0.03 0.04 0.05 0.06 0.06 0.06 0.04 0.04 0.02 0.01 0.01 0.01 0.01 0.01 0.01 0.01 0.01 0.01 0.01 0.01 0.01 0.01
0.09 0.07 0.07 0.08 0.05 0.03 0.03 0.03 0.04 0.05 0.04 0.03 0.03 0.02 0.02 0.03 0.04 0.05 0.05 0.08 0.07 0.05 0.05 0.06 0.06 0.06 0.06 0.05 0.05 0.03 0.02 0.02 0.02 0.02 0.01 0.01 0.01 0.01 0.01 0.01 0.00 0.01 0.01 0.01
0.10 0.08 0.08 0.07 0.05 0.03 0.03 0.03 0.04 0.04 0.03 0.02 0.02 0.02 0.03 0.03 0.03 0.04 0.05 0.05 0.06 0.06 0.05 0.06 0.07 0.07 0.06 0.06 0.05 0.05 0.04 0.03 0.02 0.02 0.02 0.02 0.02 0.02 0.01 0.01 0.01 0.01 0.01 0.01
0.07 0.07 0.06 0.06 0.07 0.06 0.04 0.03 0.03 0.03 0.02 0.02 0.02 0.03 0.03 0.02 0.03 0.03 0.03 0.04 0.05 0.05 0.05 0.06 0.06 0.06 0.05 0.04 0.04 0.03 0.03 0.03 0.02 0.01 0.01 0.01 0.01 0.02 0.01 0.01 0.01 0.01 0.01 0.01
0.05 0.04 0.03 0.03 0.05 0.08 0.08 0.05 0.03 0.02 0.02 0.02 0.02 0.03 0.03 0.03 0.03 0.03 0.02 0.03 0.03 0.03 0.04 0.04 0.03 0.04 0.03 0.03 0.03 0.02 0.01 0.01 0.01 0.00 0.01 0.01 0.01 0.01 0.01 0.01 0.01 0.01 0.01 0.02
0.04 0.03 0.02 0.02 0.03 0.04 0.06 0.05 0.03 0.02 0.02 0.03 0.03 0.02 0.01 0.02 0.02 0.03 0.03 0.03 0.03 0.04 0.04 0.05 0.04 0.04 0.04 0.03 0.02 0.02 0.02 0.01 0.01 0.00 0.00 0.00 0.00 0.00 0.01 0.01 0.01 0.01 0.02 0.02
0.02 0.02 0.02 0.03 0.03 0.03 0.03 0.03 0.03 0.03 0.03 0.04 0.05 0.04 0.02 0.02 0.03 0.03 0.04 0.04 0.03 0.04 0.04 0.05 0.05 0.05 0.04 0.03 0.03 0.03 0.02 0.01 0.01 0.01 0.01 0.01 0.01 0.01 0.02 0.03 0.03 0.03 0.03 0.04
0.01 0.02 0.02 0.02 0.03 0.03 0.03 0.04 0.05 0.05 0.05 0.05 0.05 0.05 0.05 0.04 0.03 0.03 0.04 0.04 0.04 0.04 0.05 0.05 0.06 0.06 0.05 0.04 0.04 0.03 0.02 0.02 0.01 0.01 0.01 0.01 0.01 0.02 0.04 0.04 0.04 0.04 0.03 0.03
0.02 0.02 0.02 0.02 0.02 0.02 0.03 0.03 0.05 0.06 0.06 0.06 0.05 0.05 0.06 0.06 0.05 0.05 0.05 0.05 0.05 0.04 0.04 0.04 0.06 0.06 0.06 0.06 0.06 0.05 0.04 0.03 0.02 0.02 0.02 0.02 0.02 0.02 0.02 0.02 0.02 0.01 0.01 0.02
0.03 0.03 0.03 0.04 0.04 0.03 0.02 0.02 0.03 0.04 0.05 0.05 0.05 0.05 0.06 0.07 0.08 0.10 0.09 0.08 0.07 0.07 0.06 0.05 0.04 0.04 0.03 0.03 0.03 0.03 0.03 0.03 0.02 0.02 0.02 0.02 0.02 0.03 0.03 0.02 0.02 0.02 0.02 0.01
0.03 0.04 0.05 0.04 0.04 0.04 0.04 0.04 0.04 0.04 0.04 0.05 0.05 0.06 0.06 0.06 0.07 0.11 0.14 0.12 0.09 0.07 0.06 0.05 0.03 0.02 0.02 0.02 0.02 0.01 0.01 0.01 0.01 0.01 0.01 0.00 0.01 0.01 0.01 0.01 0.01 0.01 0.01 0.01
0.03 0.03 0.04 0.04 0.04 0.04 0.05 0.06 0.08 0.08 0.07 0.05 0.06 0.06 0.06 0.05 0.05 0.07 0.08 0.11 0.11 0.10 0.07 0.05 0.04 0.03 0.02 0.01 0.01 0.00 0.00 0.00 0.00 0.00 0.00 0.00 0.00 0.01 0.01 0.01 0.01 0.01 0.01 0.01
0.03 0.04 0.04 0.04 0.04 0.07 0.07 0.06 0.06 0.06 0.06 0.05 0.05 0.05 0.05 0.05 0.05 0.05 0.06 0.06 0.06 0.07 0.07 0.06 0.04 0.02 0.01 0.01 0.01 0.01 0.01 0.01 0.01 0.01 0.01 0.01 0.01 0.01 0.01 0.01 0.00 0.01 0.01 0.01
0.04 0.04 0.05 0.05 0.05 0.06 0.07 0.06 0.05 0.05 0.05 0.05 0.05 0.05 0.04 0.04 0.04 0.04 0.03 0.03 0.04 0.04 0.04 0.04 0.03 0.02 0.01 0.01 0.01 0.01 0.01 0.01 0.01 0.01 0.01 0.01 0.01 0.01 0.01 0.00 0.00 0.00 0.00 0.00
0.05 0.06 0.07 0.07 0.06 0.05 0.06 0.05 0.05 0.06 0.08 0.07 0.06 0.05 0.04 0.04 0.04 0.03 0.03 0.03 0.03 0.03 0.02 0.02 0.02 0.02 0.01 0.01 0.01 0.01 0.01 0.01 0.01 0.01 0.01 0.01 0.00 0.00 0.00 0.00 0.00 0.00 0.00 0.00
0.05 0.05 0.06 0.06 0.06 0.06 0.06 0.06 0.06 0.05 0.06 0.07 0.08 0.06 0.05 0.04 0.04 0.03 0.03 0.03 0.03 0.02 0.01 0.01 0.01 0.01 0.01 0.01 0.01 0.01 0.01 0.01 0.01 0.01 0.01 0.01 0.00 0.00 0.00 0.00 0.00 0.00 0.00 0.00
0.05 0.05 0.05 0.06 0.06 0.07 0.06 0.06 0.06 0.05 0.04 0.05 0.06 0.08 0.08 0.07 0.06 0.05 0.04 0.03 0.02 0.01 0.01 0.01 0.01 0.00 0.00 0.00 0.00 0.00 0.00 0.01 0.01 0.00 0.01 0.01 0.01 0.01 0.01 0.01 0.01 0.01 0.01 0.01
MSLP
1012.93 1013.27 1013.66 1014.08 1014.49 1014.85 1015.10 1015.21 1015.15 1014.94 1014.59 1014.15 1013.66 1013.19 1012.78 1012.45 1012.23 1012.10 1012.05 1012.06 1012.11 1012.20 1012.34 1012.53 1012.78 1013.12 1013.55 1014.05 1014.60 1015.17 1015.72 1016.21 1016.62 1016.94 1017.17 1017.32 1017.43 1017.53 1017.63 1017.75 1017.89 1018.01 1018.11 1018.15
1013.20 1013.51 1013.82 1014.11 1014.36 1014.55 1014.65 1014.65 1014.54 1014.36 1014.10 1013.80 1013.49 1013.20 1012.93 1012.71 1012.53 1012.38 1012.25 1012.15 1012.08 1012.05 1012.09 1012.22 1012.45 1012.80 1013.26 1013.81 1014.42 1015.04 1015.63 1016.15 1016.59 1016.93 1017.18 1017.36 1017.51 1017.64 1017.77 1017.92 1018.08 1018.22 1018.33 1018.37
1013.67 1013.96 1014.21 1014.41 1014.55 1014.60 1014.59 1014.51 1014.37 1014.20 1014.01 1013.82 1013.63 1013.45 1013.27 1013.10 1012.91 1012.70 1012.48 1012.25 1012.05 1011.90 1011.84 1011.89 1012.09 1012.43 1012.90 1013.48 1014.12 1014.78 1015.40 1015.95 1016.41 1016.78 1017.06 1017.27 1017.45 1017.62 1017.80 1017.99 1018.18 1018.34 1018.47 1018.52
1014.32 1014.60 1014.81 1014.95 1015.01 1014.98 1014.89 1014.75 1014.59 1014.43 1014.28 1014.14 1014.01 1013.88 1013.74 1013.55 1013.32 1013.03 1012.69 1012.34 1012.00 1011.73 1011.57 1011.56 1011.71 1012.03 1012.50 1013.09 1013.75 1014.43 1015.07 1015.64 1016.12 1016.51 1016.82 1017.07 1017.29 1017.51 1017.73 1017.96 1018.18 1018.38 1018.53 1018.61
1015.09 1015.35 1015.53 1015.63 1015.63 1015.55 1015.41 1015.24 1015.06 1014.89 1014.74 1014.62 1014.51 1014.38 1014.21 1013.98 1013.68 1013.29 1012.84 1012.37 1011.92 1011.55 1011.31 1011.23 1011.34 1011.64 1012.10 1012.69 1013.35 1014.04 1014.69 1015.27 1015.77 1016.18 1016.52 1016.81 1017.08 1017.33 1017.60 1017.86 1018.12 1018.36 1018.54 1018.65
1015.86 1016.10 1016.26 1016.32 1016.29 1016.17 1016.00 1015.79 1015.59 1015.40 1015.25 1015.11 1014.98 1014.82 1014.60 1014.31 1013.92 1013.45 1012.91 1012.34 1011.80 1011.36 1011.05 1010.93 1011.00 1011.28 1011.73 1012.31 1012.97 1013.65 1014.31 1014.91 1015.42 1015.86 1016.23 1016.56 1016.87 1017.16 1017.47 1017.77 1018.06 1018.32 1018.52 1018.66
1016.56 1016.76 1016.89 1016.92 1016.85 1016.71 1016.51 1016.28 1016.05 1015.85 1015.66 1015.50 1015.32 1015.12 1014.84 1014.49 1014.03 1013.48 1012.87 1012.24 1011.65 1011.16 1010.81 1010.66 1010.71 1010.97 1011.41 1011.98 1012.63 1013.31 1013.98 1014.59 1015.13 1015.60 1016.01 1016.37 1016.72 1017.05 1017.38 1017.71 1018.02 1018.30 1018.52 1018.69
1017.12 1017.27 1017.36 1017.36 1017.26 1017.09 1016.87 1016.62 1016.38 1016.14 1015.93 1015.72 1015.50 1015.25 1014.92 1014.51 1014.00 1013.41 1012.76 1012.09 1011.48 1010.97 1010.61 1010.44 1010.48 1010.72 1011.14 1011.70 1012.34 1013.02 1013.69 1014.32 1014.89 1015.40 1015.85 1016.26 1016.64 1017.01 1017.37 1017.72 1018.04 1018.33 1018.56 1018.74
1017.52 1017.63 1017.67 1017.64 1017.52 1017.32 1017.08 1016.82 1016.55 1016.29 1016.04 1015.80 1015.54 1015.24 1014.88 1014.42 1013.88 1013.27 1012.60 1011.94 1011.32 1010.80 1010.44 1010.26 1010.28 1010.50 1010.90 1011.44 1012.07 1012.74 1013.42 1014.07 1014.67 1015.23 1015.73 1016.19 1016.62 1017.03 1017.41 1017.78 1018.11 1018.39 1018.63 1018.82
1017.80 1017.87 1017.87 1017.80 1017.66 1017.45 1017.19 1016.91 1016.62 1016.34 1016.06 1015.79 1015.49 1015.15 1014.76 1014.28 1013.73 1013.11 1012.45 1011.79 1011.18 1010.67 1010.30 1010.11 1010.11 1010.30 1010.65 1011.16 1011.76 1012.42 1013.10 1013.78 1014.42 1015.02 1015.58 1016.10 1016.59 1017.04 1017.45 1017.83 1018.17 1018.46 1018.70 1018.88
1018.02 1018.06 1018.03 1017.93 1017.76 1017.53 1017.26 1016.96 1016.65 1016.34 1016.04 1015.73 1015.40 1015.03 1014.61 1014.13 1013.57 1012.96 1012.31 1011.67 1011.07 1010.56 1010.18 1009.96 1009.92 1010.05 1010.35 1010.80 1011.36 1012.00 1012.68 1013.37 1014.05 1014.70 1015.33 1015.91 1016.46 1016.96 1017.41 1017.82 1018.17 1018.46 1018.70 1018.89
1018.24 1018.25 1018.19 1018.07 1017.88 1017.63 1017.34 1017.01 1016.68 1016.34 1015.99 1015.65 1015.28 1014.89 1014.45 1013.96 1013.40 1012.81 1012.18 1011.55 1010.95 1010.44 1010.03 1009.77 1009.67 1009.73 1009.96 1010.34 1010.84 1011.43 1012.09 1012.79 1013.50 1014.21 1014.89 1015.55 1016.16 1016.72 1017.22 1017.66 1018.04 1018.35 1018.59 1018.78
1018.49 1018.47 1018.39 1018.24 1018.02 1017.74 1017.41 1017.06 1016.68 1016.30 1015.91 1015.52 1015.12 1014.69 1014.24 1013.74 1013.19 1012.60 1011.99 1011.38 1010.79 1010.26 1009.83 1009.52 1009.35 1009.33 1009.47 1009.76 1010.19 1010.73 1011.36 1012.05 1012.78 1013.53 1014.27 1014.99 1015.67 1016.30 1016.86 1017.35 1017.76 1018.09 1018.35 1018.55
1018.75 1018.70 1018.58 1018.40 1018.14 1017.82 1017.45 1017.04 1016.61 1016.17 1015.73 1015.29 1014.85 1014.39 1013.91 1013.41 1012.87 1012.31 1011.72 1011.12 1010.55 1010.02 1009.56 1009.20 1008.97 1008.87 1008.92 1009.12 1009.47 1009.94 1010.53 1011.20 1011.94 1012.72 1013.52 1014.30 1015.04 1015.73 1016.35 1016.89 1017.35 1017.71 1018.00 1018.22
1018.99 1018.90 1018.73 1018.49 1018.18 1017.80 1017.36 1016.89 1016.40 1015.90 1015.39 1014.90 1014.41 1013.93 1013.44 1012.94 1012.42 1011.89 1011.33 1010.77 1010.22 1009.70 1009.24 1008.85 1008.57 1008.41 1008.38 1008.50 1008.77 1009.18 1009.72 1010.37 1011.11 1011.91 1012.73 1013.56 1014.36 1015.11 1015.78 1016.37 1016.87 1017.27 1017.59 1017.83
1019.17 1019.00 1018.77 1018.46 1018.07 1017.61 1017.11 1016.56 1016.00 1015.43 1014.86 1014.32 1013.79 1013.29 1012.80 1012.32 1011.84 1011.35 1010.85 1010.35 1009.85 1009.37 1008.93 1008.54 1008.23 1008.03 1007.96 1008.02 1008.23 1008.59 1009.08 1009.70 1010.42 1011.22 1012.06 1012.92 1013.75 1014.54 1015.26 1015.89 1016.42 1016.86 1017.20 1017.47
1019.23 1018.98 1018.66 1018.26 1017.79 1017.25 1016.67 1016.05 1015.41 1014.78 1014.17 1013.59 1013.05 1012.54 1012.07 1011.63 1011.20 1010.78 1010.35 1009.93 1009.51 1009.09 1008.70 1008.35 1008.06 1007.86 1007.76 1007.80 1007.97 1008.28 1008.74 1009.32 1010.02 1010.80 1011.64 1012.50 1013.35 1014.15 1014.89 1015.54 1016.10 1016.56 1016.92 1017.20
1019.17 1018.83 1018.41 1017.93 1017.37 1016.75 1016.10 1015.42 1014.73 1014.06 1013.42 1012.83 1012.28 1011.80 1011.36 1010.97 1010.61 1010.28 1009.95 1009.62 1009.29 1008.97 1008.66 1008.37 1008.13 1007.96 1007.88 1007.91 1008.06 1008.35 1008.78 1009.33 1009.99 1010.74 1011.56 1012.39 1013.23 1014.02 1014.76 1015.41 1015.97 1016.43 1016.80 1017.08
1019.02 1018.58 1018.08 1017.51 1016.89 1016.21 1015.51 1014.79 1014.09 1013.40 1012.76 1012.18 1011.67 1011.22 1010.84 1010.52 1010.24 1009.99 1009.77 1009.54 1009.32 1009.10 1008.88 1008.68 1008.50 1008.39 1008.34 1008.39 1008.55 1008.83 1009.23 1009.75 1010.37 1011.07 1011.84 1012.63 1013.42 1014.18 1014.88 1015.50 1016.04 1016.48 1016.83 1017.10
1018.82 1018.31 1017.74 1017.12 1016.45 1015.76 1015.04 1014.33 1013.63 1012.97 1012.36 1011.82 1011.35 1010.97 1010.65 1010.40 1010.20 1010.04 1009.90 1009.77 1009.64 1009.52 1009.39 1009.27 1009.17 1009.11 1009.11 1009.19 1009.36 1009.63 1010.01 1010.50 1011.07 1011.72 1012.42 1013.14 1013.86 1014.55 1015.19 1015.76 1016.25 1016.66 1016.98 1017.22
1018.65 1018.09 1017.49 1016.85 1016.19 1015.50 1014.81 1014.13 1013.48 1012.87 1012.33 1011.85 1011.45 1011.12 1010.87 1010.68 1010.55 1010.45 1010.38 1010.32 1010.26 1010.21 1010.15 1010.09 1010.06 1010.05 1010.09 1010.20 1010.38 1010.65 1011.01 1011.45 1011.97 1012.55 1013.17 1013.81 1014.44 1015.05 1015.61 1016.10 1016.53 1016.88 1017.15 1017.35
1018.54 1017.98 1017.39 1016.77 1016.14 1015.50 1014.87 1014.27 1013.69 1013.17 1012.70 1012.29 1011.96 1011.70 1011.50 1011.36 1011.26 1011.20 1011.16 1011.14 1011.11 1011.09 1011.07 1011.06 1011.06 1011.08 1011.15 1011.27 1011.46 1011.72 1012.05 1012.44 1012.90 1013.40 1013.94 1014.48 1015.02 1015.52 1015.99 1016.40 1016.75 1017.04 1017.26 1017.41
1018.53 1018.00 1017.45 1016.89 1016.33 1015.77 1015.23 1014.71 1014.23 1013.80 1013.42 1013.09 1012.82 1012.60 1012.44 1012.32 1012.24 1012.18 1012.14 1012.11 1012.08 1012.06 1012.04 1012.03 1012.04 1012.08 1012.15 1012.28 1012.45 1012.69 1012.98 1013.33 1013.72 1014.15 1014.59 1015.04 1015.48 1015.89 1016.26 1016.58 1016.85 1017.07 1017.23 1017.34
1018.60 1018.13 1017.66 1017.18 1016.70 1016.24 1015.80 1015.39 1015.00 1014.66 1014.36 1014.09 1013.88 1013.69 1013.55 1013.43 1013.33 1013.24 1013.17 1013.10 1013.04 1012.99 1012.94 1012.91 1012.90 1012.93 1012.99 1013.10 1013.26 1013.47 1013.72 1014.02 1014.35 1014.70 1015.06 1015.42 1015.76 1016.08 1016.36 1016.60 1016.79 1016.94 1017.05 1017.12
1018.72 1018.33 1017.94 1017.55 1017.17 1016.81 1016.47 1016.15 1015.86 1015.60 1015.36 1015.15 1014.96 1014.80 1014.65 1014.50 1014.37 1014.24 1014.12 1013.99 1013.88 1013.77 1013.68 1013.61 1013.57 1013.57 1013.61 1013.70 1013.84 1014.02 1014.24 1014.49 1014.77 1015.05 1015.34 1015.62 1015.88 1016.11 1016.31 1016.48 1016.61 1016.71 1016.77 1016.80
1018.85 1018.54 1018.24 1017.94 1017.65 1017.37 1017.12 1016.88 1016.66 1016.46 1016.27 1016.10 1015.93 1015.76 1015.59 1015.42 1015.25 1015.07 1014.88 1014.70 1014.52 1014.36 1014.23 1014.12 1014.05 1014.02 1014.04 1014.11 1014.23 1014.38 1014.57 1014.79 1015.02 1015.26 1015.48 1015.70 1015.90 1016.06 1016.20 1016.31 1016.39 1016.44 1016.47 1016.47
1018.95 1018.72 1018.49 1018.26 1018.05 1017.85 1017.66 1017.48 1017.31 1017.15 1017.00 1016.84 1016.68 1016.50 1016.32 1016.11 1015.90 1015.67 1015.44 1015.21 1014.99 1014.79 1014.62 1014.48 1014.39 1014.35 1014.35 1014.41 1014.52 1014.66 1014.83 1015.03 1015.23 1015.43 1015.62 1015.79 1015.94 1016.06 1016.15 1016.22 1016.26 1016.28 1016.28 1016.25
Thickness
5767 5779 5786 5786 5788 5791 5780 5770 5761 5770 5775 5787 5794 5799 5802 5803 5800 5797 5794 5793 5789 5785 5781 5779 5776 5773 5771 5768 5765 5762 5757 5752 5749 5747 5745 5742 5740 5738 5736 5734 5732 5729 5727 5725
5762 5777 5780 5779 5786 5789 5787 5785 5780 5781 5781 5799 5801 5801 5799 5798 5796 5793 5791 5789 5787 5783 5780 5776 5774 5772 5769 5765 5762 5760 5754 5750 5746 5743 5740 5737 5735 5733 5731 5729 5727 5724 5722 5720
5736 5758 5765 5754 5774 5779 5780 5786 5784 5774 5783 5796 5792 5793 5794 5794 5794 5792 5790 5786 5784 5783 5780 5776 5773 5771 5766 5763 5760 5756 5751 5747 5742 5740 5736 5733 5731 5728 5726 5723 5721 5718 5716 5714
5725 5739 5727 5750 5782 5785 5781 5781 5787 5788 5791 5795 5794 5794 5795 5795 5792 5790 5787 5784 5782 5780 5777 5774 5771 5768 5765 5761 5757 5752 5747 5743 5739 5736 5732 5730 5726 5723 5721 5718 5715 5712 5710 5709
5708 5713 5727 5753 5771 5775 5769 5762 5778 5781 5786 5789 5792 5788 5783 5790 5792 5791 5789 5785 5782 5780 5776 5772 5768 5765 5760 5755 5752 5747 5742 5739 5735 5733 5728 5724 5721 5718 5715 5712 5709 5707 5705 5703
5705 5708 5709 5736 5765 5780 5770 5746 5769 5775 5777 5781 5783 5763 5766 5783 5788 5788 5788 5785 5781 5776 5772 5768 5764 5761 5755 5748 5744 5741 5739 5735 5732 5729 5724 5720 5716 5712 5709 5706 5704 5701 5699 5697
5698 5699 5710 5741 5761 5768 5737 5733 5761 5769 5771 5773 5769 5767 5771 5778 5780 5781 5780 5778 5775 5771 5765 5762 5760 5756 5749 5744 5739 5737 5735 5731 5727 5724 5720 5716 5711 5707 5704 5701 5698 5695 5692 5690
5687 5687 5698 5738 5747 5737 5733 5748 5756 5762 5764 5764 5765 5767 5768 5770 5771 5771 5770 5767 5765 5762 5757 5755 5753 5749 5743 5737 5735 5732 5729 5725 5721 5717 5715 5711 5706 5702 5698 5695 5691 5687 5684 5682
5690 5692 5712 5729 5734 5738 5742 5743 5749 5752 5756 5758 5757 5755 5756 5757 5759 5759 5759 5757 5755 5752 5748 5745 5745 5742 5735 5732 5729 5726 5722 5717 5713 5710 5707 5703 5699 5695 5691 5687 5683 5680 5677 5674
5687 5694 5707 5718 5725 5731 5736 5739 5744 5748 5749 5751 5747 5746 5747 5747 5748 5748 5747 5746 5745 5742 5738 5735 5734 5733 5729 5725 5722 5719 5713 5709 5706 5702 5697 5694 5690 5687 5683 5679 5676 5673 5669 5666
5677 5687 5696 5705 5713 5720 5727 5732 5734 5738 5740 5740 5737 5736 5737 5737 5737 5737 5736 5735 5734 5732 5729 5726 5724 5722 5721 5718 5715 5710 5705 5701 5697 5694 5689 5684 5680 5676 5674 5671 5669 5666 5663 5660
5665 5678 5682 5690 5704 5712 5715 5718 5722 5724 5725 5727 5728 5727 5728 5726 5727 5726 5725 5724 5721 5720 5718 5716 5714 5712 5711 5709 5706 5702 5697 5693 5689 5685 5681 5676 5671 5665 5662 5661 5660 5658 5656 5653
5671 5679 5682 5689 5697 5703 5706 5709 5711 5713 5713 5714 5716 5718 5716 5715 5715 5715 5714 5713 5711 5710 5709 5707 5705 5703 5702 5702 5699 5694 5690 5685 5681 5677 5672 5668 5663 5660 5655 5651 5649 5647 5645 5642
5669 5673 5672 5678 5682 5691 5696 5698 5700 5702 5702 5704 5705 5705 5705 5704 5704 5703 5702 5701 5701 5700 5698 5697 5695 5693 5693 5692 5690 5686 5682 5678 5673 5669 5665 5660 5656 5652 5648 5644 5640 5636 5633 5631
5659 5664 5664 5670 5675 5679 5683 5685 5685 5685 5688 5690 5692 5693 5693 5692 5691 5691 5691 5691 5690 5688 5687 5686 5685 5684 5683 5682 5680 5677 5673 5669 5665 5660 5656 5652 5648 5643 5639 5635 5631 5627 5623 5620
5652 5655 5657 5660 5662 5666 5668 5670 5670 5672 5675 5677 5679 5680 5681 5682 5680 5679 5679 5679 5678 5676 5676 5676 5675 5675 5674 5672 5669 5666 5663 5661 5656 5651 5647 5643 5639 5635 5630 5625 5621 5618 5614 5610
5640 5641 5644 5647 5650 5654 5656 5658 5660 5661 5663 5665 5667 5668 5669 5669 5667 5666 5666 5667 5667 5666 5666 5666 5665 5664 5663 5661 5658 5655 5653 5650 5647 5642 5638 5634 5630 5626 5622 5617 5613 5609 5605 5602
5635 5637 5639 5641 5642 5644 5646 5648 5650 5652 5653 5655 5657 5656 5656 5654 5654 5653 5654 5654 5654 5654 5654 5655 5654 5653 5652 5650 5648 5645 5642 5639 5635 5631 5628 5624 5621 5617 5613 5608 5604 5599 5595 5592
5627 5629 5631 5633 5635 5636 5637 5639 5641 5642 5644 5645 5644 5643 5642 5643 5643 5643 5643 5642 5641 5640 5641 5643 5642 5642 5640 5639 5637 5635 5631 5628 5624 5621 5618 5614 5610 5606 5602 5598 5594 5590 5587 5582
5617 5620 5622 5624 5627 5628 5629 5631 5632 5632 5633 5634 5634 5633 5632 5632 5632 5631 5630 5630 5631 5631 5631 5631 5630 5629 5628 5627 5625 5623 5620 5616 5613 5609 5606 5603 5599 5596 5592 5589 5585 5581 5577 5574
5606 5609 5612 5614 5616 5619 5621 5622 5622 5622 5622 5623 5623 5623 5621 5621 5621 5620 5619 5618 5619 5620 5620 5620 5619 5617 5616 5615 5613 5611 5608 5605 5602 5599 5596 5593 5589 5586 5582 5579 5576 5573 5569 5565
5596 5598 5601 5603 5605 5607 5610 5612 5613 5613 5614 5613 5613 5613 5612 5611 5611 5610 5609 5609 5609 5609 5609 5608 5607 5606 5605 5604 5601 5599 5597 5595 5592 5589 5586 5583 5580 5576 5573 5570 5566 5564 5560 5557
5586 5588 5591 5593 5595 5597 5599 5601 5603 5604 5604 5604 5604 5604 5603 5602 5601 5600 5598 5598 5599 5599 5598 5597 5596 5595 5594 5593 5591 5589 5587 5585 5582 5580 5577 5574 5571 5568 5564 5562 5558 5555 5552 5549
5580 5582 5584 5585 5588 5589 5590 5592 5593 5594 5595 5594 5594 5595 5594 5592 5590 5591 5591 5590 5590 5589 5588 5586 5586 5585 5584 5582 5580 5578 5576 5574 5572 5569 5567 5564 5562 5559 5556 5553 5550 5548 5545 5542
5574 5576 5578 5579 5580 5580 5582 5583 5585 5585 5585 5585 5585 5586 5586 5585 5584 5583 5583 5582 5581 5580 5578 5577 5576 5575 5573 5571 5570 5568 5566 5564 5562 5560 5558 5555 5553 5550 5548 5546 5543 5540 5537 5534
5569 5570 5572 5573 5574 5575 5576 5576 5577 5577 5577 5576 5576 5577 5577 5577 5577 5576 5574 5573 5573 5571 5570 5568 5567 5565 5564 5562 5560 5558 5556 5555 5553 5551 5549 5547 5545 5542 5540 5537 5535 5532 5530 5527
5565 5566 5567 5567 5568 5569 5570 5571 5570 5570 5571 5570 5569 5570 5570 5570 5568 5567 5567 5565 5564 5563 5561 5560 5559 5557 5555 5552 5550 5549 5547 5546 5544 5542 5540 5538 5535 5533 5531 5529 5526 5524 5521 5519